EB7GYR Weather Reports


Display with metric or nautical units.
time (UTC)temp
F
wind
direction
speed
MPH
gust
MPH
rain 1hr
in
rain 24hr
in
rain mn
in
humidity
%
barometer
mb
20260507052518 57 158 6.0 10.0 0.00 0.00 0.00 86 1008.3
20260507051517 57 158 5.0 8.0 0.00 0.00 0.00 86 1008.3
20260507050517 57 180 4.0 7.0 0.00 0.00 0.00 86 1008.2
20260507045517 57 158 5.0 8.0 0.00 0.00 0.00 86 1008.2
20260507044518 57 158 6.0 10.0 0.00 0.00 0.00 86 1008.2
20260507043518 57 158 5.0 9.0 0.00 0.00 0.00 86 1008.0
20260507042557 57 158 7.0 12.0 0.00 0.00 0.00 87 1008.0
20260507041538 57 158 7.0 13.0 0.00 0.00 0.00 87 1007.9
20260507040517 56 135 10.0 14.0 0.00 0.00 0.00 87 1007.8
20260507035517 56 135 7.0 11.0 0.00 0.00 0.00 87 1007.8
20260507034517 56 158 6.0 11.0 0.00 0.00 0.00 87 1008.0
20260507033519 56 158 6.0 11.0 0.00 0.00 0.00 87 1008.1
20260507032518 55 135 6.0 10.0 0.00 0.00 0.00 87 1008.1
20260507031519 55 158 6.0 11.0 0.00 0.00 0.00 87 1008.2
20260507030517 55 158 5.0 9.0 0.00 0.00 0.00 87 1008.1
20260507025517 55 135 7.0 11.0 0.00 0.00 0.00 86 1008.0
20260507024517 55 135 5.0 8.0 0.00 0.00 0.00 86 1007.9
20260507023518 55 135 4.0 10.0 0.00 0.00 0.00 86 1007.9
20260507022517 55 135 4.0 8.0 0.00 0.00 0.00 85 1007.8
20260507021537 55 135 4.0 10.0 0.00 0.00 0.00 85 1007.9
20260507020517 56 135 4.0 8.0 0.00 0.00 0.00 84 1007.9
20260507015518 56 135 3.0 6.0 0.00 0.00 0.00 84 1008.0
20260507014517 56 135 4.0 8.0 0.00 0.00 0.00 84 1008.0
20260507013517 56 135 5.0 9.0 0.00 0.00 0.00 84 1008.1
20260507012517 56 158 4.0 6.0 0.00 0.00 0.00 83 1008.2
20260507011517 56 158 3.0 6.0 0.00 0.00 0.00 83 1008.3
20260507010517 57 135 3.0 7.0 0.00 0.00 0.00 82 1008.4
20260507005517 57 135 2.0 4.0 0.00 0.00 0.00 82 1008.5
20260507004517 57 158 3.0 7.0 0.00 0.00 0.00 82 1008.7
20260507003517 57 158 4.0 6.0 0.00 0.00 0.00 81 1008.7
20260507002517 57 158 3.0 6.0 0.00 0.00 0.00 80 1008.8
20260507001517 58 158 3.0 6.0 0.00 0.00 0.00 80 1009.0
20260507000518 58 158 4.0 7.0 0.00 0.00 0.00 79 1009.0
20260506235517 58 158 3.0 5.0 0.00 0.00 0.00 79 1009.0
20260506234517 58 158 3.0 6.0 0.00 0.00 0.00 79 1009.0
20260506233518 59 180 4.0 8.0 0.00 0.00 0.00 78 1009.1
20260506232517 59 158 3.0 7.0 0.00 0.00 0.00 77 1009.1
20260506231518 59 158 3.0 5.0 0.00 0.00 0.00 77 1009.2
20260506230517 59 158 3.0 6.0 0.00 0.00 0.00 77 1009.2
20260506225517 59 158 4.0 7.0 0.00 0.00 0.00 76 1009.3
20260506224517 60 158 4.0 6.0 0.00 0.00 0.00 76 1009.2
20260506223518 60 158 3.0 6.0 0.00 0.00 0.00 76 1009.3
20260506222517 61 158 1.0 4.0 0.00 0.00 0.00 75 1009.3
20260506221517 61 180 4.0 6.0 0.00 0.00 0.00 74 1009.3
20260506220518 61 180 3.0 5.0 0.00 0.00 0.00 73 1009.2
20260506215537 62 180 3.0 5.0 0.00 0.00 0.00 73 1009.3
20260506214517 62 180 2.0 4.0 0.00 0.00 0.00 72 1009.3
20260506213557 62 180 2.0 3.0 0.00 0.00 0.00 72 1009.2
20260506212517 62 180 2.0 4.0 0.00 0.00 0.00 72 1009.2
20260506211517 62 203 1.0 4.0 0.00 0.00 0.00 71 1009.2
20260506210537 63 203 2.0 5.0 0.00 0.00 0.00 70 1009.1
20260506205518 63 180 2.0 6.0 0.00 0.00 0.00 70 1009.0
20260506204517 63 203 2.0 6.0 0.00 0.00 0.00 70 1008.9
20260506203518 63 203 2.0 7.0 0.00 0.00 0.00 69 1008.8
20260506202517 64 180 1.0 5.0 0.00 0.00 0.00 69 1008.8
20260506201517 64 225 4.0 9.0 0.00 0.00 0.00 69 1008.7
20260506200517 64 248 3.0 9.0 0.00 0.00 0.00 68 1008.7
20260506195518 64 225 4.0 10.0 0.00 0.00 0.00 68 1008.6
20260506194517 64 225 4.0 12.0 0.00 0.00 0.00 67 1008.5
20260506193517 64 225 5.0 11.0 0.00 0.00 0.00 66 1008.3
20260506192517 65 225 7.0 13.0 0.00 0.00 0.00 64 1008.2
20260506191517 65 248 5.0 12.0 0.00 0.00 0.00 63 1008.1
20260506190517 66 225 6.0 13.0 0.00 0.00 0.00 62 1008.0
20260506185517 66 248 6.0 12.0 0.00 0.00 0.00 60 1008.1
20260506184517 67 248 7.0 13.0 0.00 0.00 0.00 59 1008.0
20260506183517 67 248 8.0 17.0 0.00 0.00 0.00 58 1008.0
20260506182517 68 248 7.0 13.0 0.00 0.00 0.00 57 1007.9
20260506181517 69 248 7.0 13.0 0.00 0.00 0.00 56 1007.9
20260506180517 69 225 5.0 11.0 0.00 0.00 0.00 54 1007.8
20260506175517 70 270 6.0 13.0 0.00 0.00 0.00 48 1007.9
20260506174517 70 225 7.0 12.0 0.00 0.00 0.00 45 1007.9
20260506173517 70 225 8.0 16.0 0.00 0.00 0.00 45 1008.0
20260506172517 71 225 8.0 18.0 0.00 0.00 0.00 43 1008.0
20260506171518 71 225 6.0 12.0 0.00 0.00 0.00 42 1008.1
20260506170517 71 225 8.0 15.0 0.00 0.00 0.00 41 1008.1
20260506165518 72 248 7.0 19.0 0.00 0.00 0.00 41 1008.1
20260506164517 72 225 7.0 13.0 0.00 0.00 0.00 40 1008.0
20260506163516 72 270 7.0 14.0 0.00 0.00 0.00 40 1008.1
20260506162517 72 225 6.0 14.0 0.00 0.00 0.00 40 1008.1
20260506161517 72 225 6.0 12.0 0.00 0.00 0.00 40 1008.3
20260506160517 72 225 7.0 15.0 0.00 0.00 0.00 40 1008.2
20260506155517 72 270 8.0 14.0 0.00 0.00 0.00 39 1008.3
20260506154517 72 225 7.0 16.0 0.00 0.00 0.00 40 1008.3
20260506153517 72 248 8.0 14.0 0.00 0.00 0.00 40 1008.5
20260506152557 73 248 9.0 18.0 0.00 0.00 0.00 40 1008.6
20260506151517 73 225 7.0 16.0 0.00 0.00 0.00 40 1008.7
20260506150516 73 225 7.0 13.0 0.00 0.00 0.00 40 1008.8
20260506145558 72 270 8.0 16.0 0.00 0.00 0.00 40 1008.9
20260506144516 72 248 6.0 13.0 0.00 0.00 0.00 41 1009.1
20260506143516 72 248 9.0 15.0 0.00 0.00 0.00 41 1009.3
20260506142517 73 248 9.0 14.0 0.00 0.00 0.00 41 1009.4
20260506141516 73 270 5.0 12.0 0.00 0.00 0.00 41 1009.6
20260506140516 73 293 9.0 17.0 0.00 0.00 0.00 40 1009.7
20260506135516 73 270 7.0 14.0 0.00 0.00 0.00 40 1009.6
20260506134516 73 270 5.0 10.0 0.00 0.00 0.00 41 1009.5
20260506133516 72 270 6.0 11.0 0.00 0.00 0.00 41 1009.7
20260506132517 73 293 7.0 16.0 0.00 0.00 0.00 40 1009.7
20260506131516 72 293 6.0 13.0 0.00 0.00 0.00 41 1009.8
20260506130516 73 293 8.0 17.0 0.00 0.00 0.00 41 1009.9
20260506125516 74 270 5.0 9.0 0.00 0.00 0.00 40 1009.8
20260506124516 74 270 6.0 14.0 0.00 0.00 0.00 39 1009.9
20260506123516 74 203 6.0 17.0 0.00 0.00 0.00 39 1009.8
20260506122516 74 248 5.0 10.0 0.00 0.00 0.00 36 1010.1
20260506121516 74 270 1.0 3.0 0.00 0.00 0.00 38 1010.2
20260506120536 74 225 3.0 7.0 0.00 0.00 0.00 37 1010.3
20260506115516 72 270 1.0 3.0 0.00 0.00 0.00 39 1010.5
20260506114537 72 293 1.0 4.0 0.00 0.00 0.00 40 1010.5
20260506113516 71 270 2.0 5.0 0.00 0.00 0.00 41 1010.5
20260506112516 71 270 4.0 15.0 0.00 0.00 0.00 42 1010.6
20260506111517 70 225 2.0 6.0 0.00 0.00 0.00 42 1010.5
20260506110516 70 248 5.0 11.0 0.00 0.00 0.00 43 1010.6
20260506105516 71 338 4.0 6.0 0.00 0.00 0.00 44 1010.6
20260506104516 71 23 3.0 7.0 0.00 0.00 0.00 44 1010.7
20260506103516 70 293 2.0 4.0 0.00 0.00 0.00 47 1010.8
20260506102516 69 23 2.0 6.0 0.00 0.00 0.00 48 1010.6
20260506101538 68 293 3.0 8.0 0.00 0.00 0.00 49 1010.6
20260506100516 67 45 4.0 7.0 0.00 0.00 0.00 50 1010.7
20260506095516 67 45 5.0 9.0 0.00 0.00 0.00 50 1010.8
20260506094516 67 45 2.0 9.0 0.00 0.00 0.00 52 1010.9
20260506093516 66 0 5.0 9.0 0.00 0.00 0.00 53 1010.9
20260506092516 66 0 3.0 8.0 0.00 0.00 0.00 55 1010.9
20260506091537 66 0 4.0 8.0 0.00 0.00 0.00 56 1010.9
20260506090516 65 23 4.0 9.0 0.00 0.00 0.00 57 1010.9
20260506085537 64 338 4.0 9.0 0.00 0.00 0.00 60 1010.9
20260506084536 63 338 4.0 6.0 0.00 0.00 0.00 63 1011.0
20260506083516 62 338 7.0 10.0 0.00 0.00 0.00 65 1011.0
20260506082516 61 338 6.0 11.0 0.00 0.00 0.00 65 1010.9
20260506081516 61 338 6.0 10.0 0.00 0.00 0.00 66 1010.9
20260506080516 60 338 7.0 11.0 0.00 0.00 0.00 66 1011.0
20260506073518 59 338 5.0 10.0 0.00 0.00 0.00 68 1010.8
20260506072518 59 338 5.0 8.0 0.00 0.00 0.00 68 1010.9
20260506071518 58 315 2.0 6.0 0.00 0.00 0.00 68 1010.9
20260506070538 57 315 5.0 8.0 0.00 0.00 0.00 69 1010.9
20260506062517 55 315 3.0 5.0 0.00 0.00 0.00 72 1010.9
20260506061517 55 315 2.0 5.0 0.00 0.00 0.00 73 1010.8
20260506060518 54 338 1.0 3.0 0.00 0.00 0.00 73 1010.7